Weather History for Dansville, NY

Change the Weather History Date:

Monday, August 4, 2014

  Actual Average Record
Temperature  
Mean Temperature 71 °F -  
Max Temperature 82 °F 82 °F 98 °F (1955)
Min Temperature 60 °F 59 °F 46 °F (1976)
Cooling Degree Days 6    
Growing Degree Days 21 (Base 50)    
Moisture  
Dew Point 63 °F    
Average Humidity 87    
Maximum Humidity 100    
Minimum Humidity 42    
Precipitation  
Precipitation 0.07 in - - ()
Sea Level Pressure  
Sea Level Pressure 30.10 in    
Wind  
Wind Speed 2 mph (SE)    
Max Wind Speed 9 mph    
Max Gust Speed -    
Visibility 5 miles    
Events Fog , Rain , Thunderstorm    
Averages and records for this station are not official NWS values.
T = Trace of Precipitation, MM = Missing Value Source: NWS Daily Summary

Daily Weather History Graph

Daily Weather History Graph

Search for Another Location

Airport:

Trip Planner

Search our weather history database for the weather conditions in past years. The results will help you decide how hot, cold, wet, or windy it might be!

Date:

Astronomy

Aug. 04, 2014 Rise Set
Actual Time 6:05 AM EDT 8:27 PM EDT
Civil Twilight 5:34 AM EDT 8:58 PM EDT
Nautical Twilight 4:55 AM EDT 9:37 PM EDT
Astronomical Twilight 4:11 AM EDT 10:21 PM EDT
Moon 2:36 PM EDT (8/4) 12:12 AM EDT (8/4)
Length of Visible Light 15h 24m
Length of Day
14h 21m
First Quarter, 57% of the Moon is Illuminated
Aug 4
First Quarter
Aug 10
Full
Aug 17
Last Quarter
Aug 25
New
Sep 2
First Quarter

Hourly Weather History & Observations

Time (EDT) Temp. Heat Index Dew Point Humidity Pressure Visibility Wind Dir Wind Speed Gust Speed Precip Events Conditions
12:05 AM 66.0 °F - 64.9 °F 96% 30.10 in 2.5 mi Calm Calm - N/A   Overcast
12:25 AM 66.0 °F - 64.9 °F 96% 30.09 in 2.5 mi Calm Calm - N/A   Overcast
1:23 AM 64.9 °F - 64.0 °F 97% 30.08 in 2.5 mi Calm Calm - N/A   Overcast
1:37 AM 64.9 °F - 64.0 °F 97% 30.08 in 2.0 mi Calm Calm - N/A   Overcast
1:54 AM 64.0 °F - 64.0 °F 100% 30.11 in 2.5 mi Calm Calm - N/A   Overcast
2:06 AM 64.0 °F - 64.0 °F 100% 30.08 in 1.8 mi Calm Calm - N/A   Overcast
2:16 AM 64.0 °F - 64.0 °F 100% 30.09 in 3.0 mi SE 4.6 mph - N/A   Overcast
2:35 AM 64.0 °F - 63.0 °F 96% 30.08 in 6.0 mi SE 4.6 mph - N/A   Overcast
2:54 AM 64.0 °F - 62.1 °F 93% 30.10 in 6.0 mi SE 3.5 mph - N/A   Overcast
3:54 AM 63.0 °F - 62.1 °F 97% 30.11 in 4.0 mi Calm Calm - N/A   Mostly Cloudy
4:54 AM 62.1 °F - 61.0 °F 96% 30.12 in 3.0 mi Calm Calm - N/A   Mostly Cloudy
4:57 AM 62.1 °F - 61.0 °F 96% 30.09 in 1.8 mi Calm Calm - N/A   Mostly Cloudy
5:00 AM 62.1 °F - 61.0 °F 96% 30.10 in 0.8 mi Calm Calm - N/A   Mostly Cloudy
5:08 AM 61.0 °F - 61.0 °F 100% 30.10 in 0.2 mi Calm Calm - N/A Fog Fog
5:54 AM 61.0 °F - 60.1 °F 97% 30.13 in 0.8 mi Calm Calm - N/A   Mist
6:00 AM 60.1 °F - 60.1 °F 100% 30.11 in 2.0 mi Calm Calm - N/A   Mostly Cloudy
6:05 AM 60.1 °F - 59.0 °F 96% 30.11 in 0.8 mi Calm Calm - N/A   Mist
6:14 AM 60.1 °F - 60.1 °F 100% 30.11 in 0.2 mi South 3.5 mph - N/A Fog Fog
6:23 AM 60.1 °F - 60.1 °F 100% 30.11 in 0.5 mi South 3.5 mph - N/A Fog Fog
6:49 AM 60.8 °F - 60.8 °F 100% 30.12 in 1.5 mi SSE 3.5 mph - N/A   Overcast
6:54 AM 60.1 °F - 60.1 °F 100% 30.14 in 1.5 mi Calm Calm - N/A   Mostly Cloudy
7:02 AM 61.0 °F - 60.1 °F 97% 30.12 in 3.0 mi Calm Calm - N/A   Mostly Cloudy
7:09 AM 61.0 °F - 60.1 °F 97% 30.12 in 4.0 mi Calm Calm - N/A   Scattered Clouds
7:54 AM 63.0 °F - 61.0 °F 93% 30.14 in 8.0 mi SSE 4.6 mph - N/A   Clear
8:54 AM 66.9 °F - 63.0 °F 87% 30.15 in 10.0 mi ESE 6.9 mph - N/A   Clear
9:54 AM 70.0 °F - 64.0 °F 81% 30.14 in 10.0 mi SSE 6.9 mph - N/A   Clear
10:54 AM 73.0 °F - 63.0 °F 71% 30.14 in 10.0 mi East 3.5 mph - N/A   Clear
11:54 AM 77.0 °F - 64.9 °F 66% 30.14 in 10.0 mi Variable 3.5 mph - N/A   Clear
12:54 PM 79.0 °F - 64.9 °F 62% 30.12 in 10.0 mi NNE 4.6 mph - N/A   Clear
1:54 PM 80.1 °F 81.5 °F 63.0 °F 56% 30.11 in 9.0 mi NNW 4.6 mph - N/A   Scattered Clouds
2:54 PM 79.0 °F - 63.0 °F 58% 30.09 in 9.0 mi South 4.6 mph - N/A   Mostly Cloudy
3:54 PM 80.1 °F 81.2 °F 62.1 °F 54% 30.07 in 10.0 mi SSE 3.5 mph - N/A   Clear
4:54 PM 82.0 °F 82.7 °F 61.0 °F 49% 30.07 in 10.0 mi Calm Calm - N/A   Partly Cloudy
5:54 PM 82.9 °F 82.6 °F 57.9 °F 42% 30.06 in 10.0 mi NW 3.5 mph - N/A   Clear
6:54 PM 80.1 °F 81.2 °F 62.1 °F 54% 30.07 in 10.0 mi Calm Calm - N/A   Clear
7:38 PM 75.0 °F - 66.0 °F 73% 30.06 in 9.0 mi Calm Calm - N/A Thunderstorm Scattered Clouds
7:54 PM 73.0 °F - 64.0 °F 73% 30.09 in 7.0 mi NNW 9.2 mph - 0.00 in Rain Light Rain
8:13 PM 70.0 °F - 66.0 °F 87% 30.08 in 4.0 mi NNW 8.1 mph - 0.01 in Rain , Thunderstorm Light Thunderstorms and Rain
8:39 PM 69.1 °F - 66.0 °F 90% 30.08 in 7.0 mi Variable 3.5 mph - 0.02 in Rain Light Rain
8:54 PM 70.0 °F - 64.0 °F 81% 30.10 in 2.5 mi Variable 3.5 mph - 0.05 in Rain Heavy Rain
9:09 PM 69.1 °F - 66.0 °F 90% 30.08 in 6.0 mi Variable 4.6 mph - 0.02 in Rain Light Rain
9:54 PM 66.0 °F - 64.9 °F 96% 30.11 in 5.0 mi Calm Calm - 0.02 in   Clear
10:29 PM 64.9 °F - 64.0 °F 97% 30.09 in 1.8 mi Calm Calm - N/A   Clear
10:54 PM 64.9 °F - 64.0 °F 97% 30.10 in 5.0 mi Calm Calm - N/A   Clear
11:54 PM 64.0 °F - 63.0 °F 96% 30.10 in 6.0 mi Calm Calm - N/A   Clear